When you browse on this site, cookies collect data to enhance your experience and personalize the content and advertising you see.
Visit our Privacy Policy to learn more. By continuing to use the site, you agree to this use of cookies and data.
  • In United Kingdom
  • List of Countries
  • For 7 days
  • Water Temperature
  • Weather Map
  • Weather Widgets
  • user-avatar
    Login

    Hourly Weather Berlin

    Today, 15 December, Sunday

    Time Temperature Precipitation Wind Pressure Humidity
    00:00 +2°C° 0.1 mm 6 mps 744 mmHg 81%
    01:00 +2°C° 0.1 mm 6 mps 745 mmHg 76%
    02:00 +2°C° 0 mm 5 mps 746 mmHg 78%
    03:00 +1°C° 0 mm 4 mps 746 mmHg 79%
    04:00 +1°C° 0 mm 3 mps 746 mmHg 80%
    05:00 +1°C° 0 mm 4 mps 746 mmHg 80%
    06:00 +1°C° 0 mm 4 mps 746 mmHg 80%
    07:00 +2°C° 0 mm 5 mps 745 mmHg 79%
    08:00 +2°C° 0.7 mm 6 mps 745 mmHg 83%
    09:00 +3°C° 0.7 mm 6 mps 744 mmHg 86%
    10:00 +3°C° 0.7 mm 7 mps 743 mmHg 89%
    11:00 +5°C° 0.5 mm 6 mps 744 mmHg 85%
    12:00 +7°C° 0.5 mm 6 mps 744 mmHg 81%
    13:00 +8°C° 0.5 mm 6 mps 744 mmHg 76%
    14:00 +7°C° 0 mm 5 mps 745 mmHg 75%
    15:00 +6°C° 0 mm 5 mps 747 mmHg 73%
    16:00 +6°C° 0 mm 5 mps 748 mmHg 71%
    17:00 +5°C° 0 mm 5 mps 748 mmHg 72%
    18:00 +5°C° 0 mm 5 mps 749 mmHg 72%
    19:00 +3°C° 0 mm 5 mps 749 mmHg 73%
    20:00 +3°C° 0 mm 5 mps 750 mmHg 73%
    21:00 +3°C° 0 mm 5 mps 751 mmHg 73%
    22:00 +3°C° 0 mm 5 mps 752 mmHg 72%
    23:00 +3°C° 0 mm 5 mps 752 mmHg 75%

    Tomorrow, 16 December, Monday

    Time Temperature Precipitation Wind Pressure Humidity
    00:00 +4°C° 0 mm 4 mps 753 mmHg 77%
    01:00 +4°C° 0 mm 3 mps 753 mmHg 80%
    02:00 +3°C° 0 mm 3 mps 753 mmHg 82%
    03:00 +3°C° 0 mm 3 mps 754 mmHg 84%
    04:00 +3°C° 0 mm 3 mps 754 mmHg 86%
    05:00 +3°C° 0 mm 3 mps 754 mmHg 87%
    06:00 +2°C° 0 mm 3 mps 754 mmHg 88%
    07:00 +2°C° 0 mm 3 mps 754 mmHg 90%
    08:00 +3°C° 0 mm 3 mps 754 mmHg 89%
    09:00 +3°C° 0 mm 3 mps 754 mmHg 88%
    10:00 +4°C° 0 mm 3 mps 754 mmHg 87%
    11:00 +5°C° 0.1 mm 3 mps 754 mmHg 87%
    12:00 +5°C° 0.1 mm 3 mps 753 mmHg 88%
    13:00 +7°C° 0.1 mm 3 mps 753 mmHg 89%
    14:00 +7°C° 0.3 mm 3 mps 753 mmHg 90%
    15:00 +7°C° 0.3 mm 3 mps 753 mmHg 92%
    16:00 +7°C° 0.3 mm 2 mps 753 mmHg 93%
    17:00 +7°C° 0 mm 2 mps 753 mmHg 91%
    18:00 +7°C° 0 mm 2 mps 753 mmHg 89%
    19:00 +7°C° 0 mm 2 mps 752 mmHg 87%
    20:00 +7°C° 0 mm 2 mps 752 mmHg 87%
    21:00 +7°C° 0 mm 3 mps 752 mmHg 88%
    22:00 +5°C° 0 mm 3 mps 752 mmHg 88%
    23:00 +5°C° 0 mm 3 mps 752 mmHg 88%

    Day after tomorrow, 17 December, Tuesday

    Time Temperature Precipitation Wind Pressure Humidity
    00:00 +5°C° 0 mm 3 mps 752 mmHg 88%
    01:00 +5°C° 0 mm 3 mps 752 mmHg 88%
    02:00 +5°C° 0 mm 3 mps 752 mmHg 87%
    03:00 +5°C° 0 mm 3 mps 752 mmHg 86%
    04:00 +5°C° 0 mm 3 mps 752 mmHg 85%
    05:00 +5°C° 0 mm 3 mps 752 mmHg 84%
    06:00 +5°C° 0 mm 3 mps 751 mmHg 82%
    07:00 +5°C° 0 mm 4 mps 751 mmHg 80%
    08:00 +6°C° 0 mm 4 mps 751 mmHg 78%
    09:00 +7°C° 0 mm 3 mps 752 mmHg 76%
    10:00 +8°C° 0 mm 3 mps 752 mmHg 74%
    11:00 +9°C° 0 mm 3 mps 752 mmHg 71%
    12:00 +9°C° 0 mm 3 mps 752 mmHg 69%
    13:00 +10°C° 0 mm 3 mps 752 mmHg 67%
    14:00 +10°C° 0 mm 3 mps 752 mmHg 71%
    15:00 +9°C° 0 mm 3 mps 752 mmHg 74%
    16:00 +8°C° 0 mm 3 mps 752 mmHg 78%
    17:00 +8°C° 0 mm 3 mps 752 mmHg 77%
    18:00 +8°C° 0 mm 3 mps 753 mmHg 76%
    19:00 +8°C° 0 mm 3 mps 753 mmHg 75%
    20:00 +8°C° 0 mm 3 mps 753 mmHg 76%
    21:00 +8°C° 0 mm 2 mps 753 mmHg 78%
    22:00 +7°C° 0 mm 2 mps 753 mmHg 80%
    23:00 +7°C° 0 mm 2 mps 753 mmHg 81%

    18 December, Wednesday

    Time Temperature Precipitation Wind Pressure Humidity
    00:00 +7°C° 0 mm 3 mps 753 mmHg 81%
    01:00 +7°C° 0 mm 3 mps 753 mmHg 82%
    02:00 +6°C° 0 mm 4 mps 753 mmHg 79%
    03:00 +7°C° 0 mm 4 mps 754 mmHg 77%
    04:00 +7°C° 0 mm 4 mps 754 mmHg 74%
    05:00 +7°C° 0 mm 4 mps 754 mmHg 75%
    06:00 +7°C° 0 mm 4 mps 754 mmHg 75%
    07:00 +7°C° 0 mm 4 mps 754 mmHg 75%
    08:00 +7°C° 0 mm 4 mps 754 mmHg 75%
    09:00 +7°C° 0 mm 4 mps 754 mmHg 74%
    10:00 +7°C° 0 mm 4 mps 755 mmHg 73%
    11:00 +9°C° 0 mm 3 mps 755 mmHg 73%
    12:00 +10°C° 0 mm 3 mps 755 mmHg 72%
    13:00 +10°C° 0 mm 2 mps 756 mmHg 72%
    14:00 +10°C° 0 mm 2 mps 756 mmHg 78%
    15:00 +10°C° 0 mm 1 mps 756 mmHg 83%
    16:00 +9°C° 0 mm 1 mps 756 mmHg 89%
    17:00 +8°C° 0 mm 1 mps 757 mmHg 90%
    18:00 +8°C° 0 mm 1 mps 757 mmHg 91%
    19:00 +8°C° 0 mm 1 mps 757 mmHg 92%
    20:00 +7°C° 0 mm 1 mps 757 mmHg 92%
    21:00 +7°C° 0 mm 1 mps 757 mmHg 91%
    22:00 +7°C° 0 mm 1 mps 757 mmHg 91%
    23:00 +6°C° 0 mm 2 mps 757 mmHg 91%

    19 December, Thursday

    Time Temperature Precipitation Wind Pressure Humidity
    00:00 +6°C° 0 mm 2 mps 757 mmHg 91%
    01:00 +5°C° 0 mm 2 mps 757 mmHg 90%
    02:00 +5°C° 0 mm 2 mps 757 mmHg 89%
    03:00 +5°C° 0 mm 2 mps 756 mmHg 89%
    04:00 +5°C° 0 mm 2 mps 756 mmHg 88%
    05:00 +4°C° 0 mm 3 mps 756 mmHg 88%
    06:00 +4°C° 0 mm 3 mps 756 mmHg 89%
    07:00 +4°C° 0 mm 3 mps 756 mmHg 89%
    08:00 +4°C° 0 mm 3 mps 756 mmHg 88%
    09:00 +4°C° 0 mm 3 mps 756 mmHg 87%
    10:00 +4°C° 0 mm 3 mps 756 mmHg 86%
    11:00 +5°C° 0 mm 3 mps 756 mmHg 85%
    12:00 +5°C° 0 mm 3 mps 755 mmHg 83%
    13:00 +7°C° 0 mm 3 mps 755 mmHg 82%
    14:00 +7°C° 0 mm 3 mps 755 mmHg 84%
    15:00 +5°C° 0 mm 3 mps 755 mmHg 86%
    16:00 +5°C° 0 mm 3 mps 754 mmHg 88%
    17:00 +4°C° 0 mm 3 mps 754 mmHg 88%
    18:00 +4°C° 0 mm 4 mps 754 mmHg 89%
    19:00 +4°C° 0 mm 4 mps 754 mmHg 89%
    20:00 +4°C° 0 mm 4 mps 754 mmHg 90%
    21:00 +4°C° 0 mm 4 mps 753 mmHg 90%
    22:00 +4°C° 0 mm 4 mps 753 mmHg 91%
    23:00 +4°C° 0 mm 4 mps 752 mmHg 91%

    20 December, Friday

    Time Temperature Precipitation Wind Pressure Humidity
    00:00 +4°C° 0 mm 4 mps 752 mmHg 92%
    01:00 +4°C° 0 mm 4 mps 751 mmHg 92%
    02:00 +4°C° 0 mm 4 mps 751 mmHg 93%
    03:00 +4°C° 0 mm 4 mps 750 mmHg 93%
    04:00 +5°C° 0 mm 4 mps 750 mmHg 93%
    05:00 +5°C° 0 mm 4 mps 749 mmHg 94%
    06:00 +5°C° 0 mm 4 mps 749 mmHg 94%
    07:00 +5°C° 0 mm 4 mps 748 mmHg 94%
    08:00 +5°C° 0 mm 4 mps 748 mmHg 94%
    09:00 +6°C° 0 mm 4 mps 748 mmHg 94%
    10:00 +6°C° 0 mm 4 mps 748 mmHg 93%
    11:00 +6°C° 0 mm 4 mps 747 mmHg 91%
    12:00 +7°C° 0 mm 4 mps 747 mmHg 88%
    13:00 +7°C° 0 mm 4 mps 746 mmHg 85%
    14:00 +7°C° 0 mm 4 mps 746 mmHg 86%
    15:00 +7°C° 0 mm 4 mps 745 mmHg 87%
    16:00 +6°C° 0 mm 4 mps 745 mmHg 87%
    17:00 +6°C° 0 mm 4 mps 744 mmHg 88%
    18:00 +6°C° 0 mm 4 mps 744 mmHg 89%
    19:00 +6°C° 0 mm 4 mps 744 mmHg 90%
    20:00 +5°C° 0 mm 4 mps 743 mmHg 90%
    21:00 +5°C° 0 mm 4 mps 743 mmHg 90%
    22:00 +5°C° 0 mm 4 mps 743 mmHg 90%
    23:00 +6°C° 0 mm 4 mps 742 mmHg 89%
    Show more